Temperature
15 15 15 16 13 12 14 15 17 19 19 20 20 20 18 18 19 18 18 18 18 18 17 17 17 17 17 17 17 17 17 17 17 17 17 16 16 16 16 16 16 16 16 16 16 16 16 16 15
14 14 15 15 12 13 14 15 18 19 20 20 20 19 17 17 17 17 17 17 18 18 17 17 17 17 17 17 17 17 17 17 17 17 16 16 16 16 16 16 16 16 16 16 16 16 15 15 15
14 14 14 12 12 13 15 17 17 19 20 20 19 18 18 17 17 17 18 17 17 17 17 17 17 17 17 17 17 17 17 17 17 16 16 16 16 16 16 16 16 15 15 15 15 15 15 15 15
14 14 14 12 13 14 16 17 17 18 20 20 18 17 17 17 17 18 17 17 17 17 17 17 17 17 17 17 17 17 17 16 16 16 16 16 16 16 16 15 15 15 15 15 15 15 15 15 15
13 14 12 12 13 14 15 17 18 18 18 19 18 16 16 17 17 17 17 17 17 17 16 16 16 17 17 17 17 16 16 16 16 16 16 16 16 16 15 15 15 15 15 15 15 15 15 14 14
13 12 11 12 13 15 16 18 18 18 18 18 17 15 16 16 17 17 17 17 17 17 16 16 16 16 16 16 16 16 16 16 16 16 16 16 15 15 15 15 15 15 15 15 14 14 14 14 14
12 11 11 12 13 15 16 18 18 17 17 18 18 15 15 16 16 16 16 16 16 16 16 16 16 16 16 16 16 16 16 16 16 16 16 15 15 15 15 15 15 15 15 14 14 14 14 14 14
12 11 12 12 14 15 17 18 18 18 18 18 18 15 15 16 16 16 16 15 15 15 15 16 16 16 16 16 16 16 16 15 15 15 15 15 15 15 15 15 15 14 14 14 14 14 14 14 14
12 11 11 13 14 15 17 17 18 18 18 17 17 17 17 16 16 15 15 15 15 15 15 15 15 15 15 15 15 15 15 15 15 15 15 15 15 15 15 15 14 14 14 14 14 14 14 14 14
12 10 12 14 14 15 16 17 17 17 16 15 16 16 16 15 15 15 15 15 15 15 15 15 15 15 15 15 15 15 15 15 15 15 15 15 15 15 15 14 14 14 14 14 14 14 14 13 13
11 11 12 14 15 16 16 16 17 16 15 15 15 15 15 15 15 15 15 15 15 15 15 15 15 15 15 15 15 15 15 15 15 15 15 15 15 14 14 14 14 14 14 14 14 13 13 13 13
11 11 13 14 15 15 15 16 16 16 16 17 17 16 15 15 15 15 15 15 15 15 15 14 14 15 15 15 15 15 15 15 15 14 14 14 14 14 14 14 14 14 14 13 13 13 13 13 13
10 12 13 14 15 15 15 15 15 15 16 16 16 15 15 14 15 15 15 15 14 14 14 14 14 14 14 14 14 14 14 14 14 14 14 14 14 14 14 14 14 13 13 13 13 13 13 13 13
11 12 12 13 14 14 14 14 14 14 15 15 15 15 14 14 14 14 14 14 14 14 14 14 14 14 14 14 14 14 14 14 14 14 14 14 14 14 14 14 13 13 13 13 13 13 13 12 12
12 11 11 12 13 13 14 13 12 14 14 14 14 14 14 14 14 14 14 14 14 14 14 14 14 14 14 14 14 14 14 14 14 14 14 14 14 14 14 13 13 13 13 13 12 12 12 12 12
10 10 10 11 12 13 13 11 12 13 13 13 13 13 13 14 14 14 14 14 14 14 14 14 13 13 13 13 13 14 13 13 13 13 13 13 13 13 13 13 13 13 12 12 12 12 12 12 12
9 8 9 11 11 12 11 11 11 13 13 12 12 13 13 13 13 13 14 14 14 14 14 13 13 13 13 13 13 13 13 13 13 13 13 13 13 13 13 13 13 12 12 12 12 12 12 12 12
8 8 9 10 11 11 10 10 11 12 12 12 12 12 12 13 13 13 13 13 13 13 13 13 13 13 13 13 13 12 12 12 13 13 13 13 13 13 13 13 12 12 12 12 12 11 11 11 11
9 9 9 10 11 10 10 10 10 11 11 11 11 11 12 12 13 13 13 13 13 13 13 13 13 13 13 12 12 12 12 12 12 12 12 12 12 12 12 12 12 12 12 12 11 11 11 11 10
8 9 9 10 11 10 9 10 10 10 10 11 11 11 12 12 12 12 13 13 13 13 13 13 13 13 12 12 12 12 12 12 12 12 12 12 12 12 12 12 12 12 11 11 11 11 10 10 10
8 8 8 9 9 10 9 9 9 10 10 11 11 11 12 12 12 12 12 12 12 12 12 12 12 12 12 12 12 12 12 11 11 11 12 12 12 12 12 11 11 11 11 11 11 10 10 10 9
7 8 9 9 8 8 9 8 8 9 9 9 10 10 11 11 12 12 12 12 12 12 12 12 12 12 12 12 12 12 12 12 12 12 11 11 11 11 11 11 11 11 11 10 10 10 9 9 9
7 8 8 8 8 7 8 7 7 8 9 9 9 10 10 11 11 11 12 12 12 12 12 12 12 12 12 11 11 11 11 11 11 11 11 11 11 11 11 11 11 10 10 10 9 9 9 9 8
7 7 7 7 7 7 7 7 7 8 9 9 9 9 10 10 11 11 11 11 11 11 11 11 11 11 11 11 11 11 11 11 11 11 11 11 11 10 10 10 10 10 10 9 9 9 8 8 8
6 6 6 6 6 6 7 7 7 8 9 9 9 9 9 10 10 10 10 11 11 11 11 11 11 11 11 10 10 10 10 10 11 11 11 10 10 10 10 10 10 9 9 9 9 8 8 8 7
6 6 6 6 6 6 7 7 7 7 8 9 9 9 9 9 9 9 10 10 10 10 10 10 10 10 10 10 10 10 10 10 10 10 10 10 10 10 10 9 9 9 9 8 8 8 7 7 7
5 5 5 5 5 6 6 6 6 7 7 7 7 8 8 8 8 9 9 9 10 10 10 10 10 10 10 10 10 9 9 9 9 9 9 9 9 9 9 9 9 8 8 8 8 7 7 7 6
6 5 5 5 5 6 6 6 6 6 6 6 6 6 7 7 7 8 8 9 9 9 9 9 9 10 9 9 9 9 9 9 9 9 9 9 9 9 8 8 8 8 8 7 7 7 6 6 6
5 5 4 4 4 5 6 6 6 5 6 5 5 6 6 6 7 7 8 8 8 8 9 9 9 9 9 9 9 8 8 8 8 8 8 8 8 8 8 8 8 7 7 7 7 6 6 5 5
4 4 4 4 4 4 4 5 5 4 4 5 5 5 5 6 6 6 7 7 7 8 8 8 8 8 8 8 8 8 8 8 8 8 8 8 8 7 7 7 7 7 7 6 6 6 5 5 5
Wind_Speed
4 3 2 3 4 2 6 7 5 3 2 2 2 7 8 6 4 6 5 11 14 14 17 19 20 20 19 19 19 19 18 18 17 17 17 16 16 16 16 16 16 16 16 16 16 16 16 15 15
2 1 3 4 4 3 7 7 7 6 5 4 4 5 6 4 3 8 7 12 16 16 17 18 20 20 20 20 19 19 18 18 17 17 17 16 16 16 16 16 16 16 16 15 15 15 15 14 14
1 1 3 4 5 8 7 5 7 5 3 3 3 4 5 5 4 5 8 15 15 15 17 19 21 20 20 20 20 19 18 17 17 16 16 16 16 16 16 16 16 15 15 15 15 14 14 14 14
2 2 3 2 7 7 6 4 4 3 1 2 5 5 3 1 3 7 14 16 16 13 17 19 21 20 20 20 19 19 18 17 17 16 16 16 16 16 16 15 15 15 14 14 14 13 13 13 13
2 3 3 4 8 7 7 6 4 3 2 1 5 6 3 5 8 14 16 16 16 12 15 19 21 20 20 19 19 19 18 18 17 17 16 16 16 16 16 15 14 14 13 13 13 12 12 12 13
2 3 4 6 7 6 6 6 2 1 2 2 6 6 2 2 10 13 15 14 14 13 15 17 20 20 19 19 19 19 18 18 18 17 17 17 16 16 15 15 14 13 13 13 13 12 12 12 13
4 5 6 6 6 6 6 4 4 3 3 4 7 7 4 4 8 12 13 13 13 13 13 14 16 18 19 19 19 19 19 18 18 17 17 17 16 16 15 14 13 13 13 12 12 12 12 12 12
4 4 5 5 6 6 4 3 2 5 4 2 5 9 7 8 10 13 13 13 12 11 11 11 14 15 16 17 18 19 19 18 18 17 17 16 16 15 14 14 13 12 12 11 11 11 11 11 11
3 3 7 7 7 5 3 2 1 1 5 3 2 4 8 14 15 15 14 12 11 11 9 10 11 13 14 15 17 18 18 18 17 16 16 15 14 13 13 13 12 12 11 10 10 9 10 10 11
5 7 9 5 5 3 2 3 2 3 3 3 5 6 12 14 16 17 16 15 14 12 10 9 11 12 13 13 14 14 14 15 15 15 15 14 13 12 12 12 11 10 10 9 9 9 9 9 9
6 7 5 4 3 2 1 1 1 6 3 5 9 13 14 14 15 15 14 14 14 13 11 10 10 12 12 11 11 11 12 12 13 14 14 14 13 11 11 10 9 9 9 8 8 9 8 8 7
5 6 5 4 3 1 2 1 1 3 5 6 12 17 15 15 15 15 15 13 12 12 11 10 10 10 11 11 10 10 10 10 10 12 14 13 10 8 8 7 7 7 7 7 7 7 8 8 7
6 4 5 5 4 3 1 2 2 2 2 7 11 13 13 12 11 10 12 12 13 12 11 10 11 11 10 10 9 9 9 9 11 11 12 13 9 7 7 6 7 6 6 6 6 6 6 6 6
6 5 4 5 4 2 2 2 2 3 5 9 11 11 11 11 11 10 11 12 13 13 12 11 10 11 11 8 7 8 9 10 11 11 12 12 11 9 7 6 5 5 5 6 6 5 5 4 5
3 3 4 5 4 3 2 2 4 4 7 9 9 9 9 8 9 11 12 13 13 13 12 12 11 11 10 9 9 9 10 11 10 10 12 12 11 10 8 6 4 5 6 6 6 6 5 4 4
4 4 5 5 5 4 5 7 5 5 9 8 8 8 8 7 7 8 9 10 11 12 12 12 11 11 10 9 9 9 10 10 10 10 11 11 11 11 9 6 4 5 6 5 4 3 3 3 3
4 7 8 5 5 4 6 6 4 4 8 8 7 7 8 7 5 6 7 9 11 12 13 12 11 11 10 9 9 9 9 9 9 10 10 10 11 11 9 6 5 6 6 4 3 2 2 2 3
9 7 7 8 4 5 6 5 4 4 8 8 8 7 8 8 8 7 7 8 10 11 11 12 11 11 10 9 7 6 6 6 7 8 9 10 10 10 9 7 6 6 5 3 3 2 3 2 2
6 6 6 6 4 5 7 7 6 6 6 7 8 8 8 8 6 6 7 8 9 10 11 12 12 11 10 8 7 6 5 4 4 5 8 9 10 9 8 6 5 5 3 3 3 2 3 2 2
5 6 5 3 3 4 5 7 6 6 8 9 10 10 9 7 5 6 7 7 9 11 11 12 12 12 11 8 6 4 5 3 3 4 6 8 9 9 8 6 5 4 3 3 3 3 2 2 3
8 8 7 4 1 1 3 4 6 4 4 5 7 8 9 10 10 9 8 8 9 10 11 12 12 11 10 9 7 6 5 4 2 2 2 4 7 8 8 7 6 4 4 3 2 2 3 1 1
8 6 6 5 4 4 5 5 6 5 5 6 7 7 7 7 8 10 10 10 10 10 9 10 11 11 10 10 11 11 8 5 4 4 3 3 6 7 7 7 7 5 4 3 2 2 2 3 1
4 3 4 5 5 3 3 4 6 4 8 9 8 8 7 7 8 10 10 11 10 9 9 9 9 10 9 9 11 11 7 5 4 4 5 3 3 5 6 7 6 5 3 3 3 2 2 2 2
2 2 2 2 3 6 8 6 6 7 11 8 7 7 7 6 6 7 7 7 7 7 8 8 9 9 9 9 9 10 10 8 7 6 5 4 2 3 4 6 5 4 3 3 3 2 3 2 1
4 5 3 3 5 6 6 6 6 6 6 8 9 8 7 6 6 6 7 7 7 8 8 9 10 9 9 9 8 9 9 10 10 8 7 5 3 2 3 3 4 3 3 3 3 3 2 2 2
7 7 5 5 6 2 5 7 4 3 2 4 5 5 5 5 5 6 7 7 7 8 8 9 10 9 8 9 8 7 7 7 6 7 6 6 5 4 4 4 4 4 4 3 3 2 2 1 1
6 6 3 2 2 2 5 3 4 2 1 2 4 4 5 5 5 5 5 5 6 7 8 9 9 8 8 8 7 6 7 6 6 6 5 4 4 4 5 5 4 3 3 3 3 2 2 1 1
4 5 4 3 4 3 3 4 4 3 4 4 4 4 3 4 4 4 3 4 4 4 5 7 8 8 7 7 7 6 6 6 6 6 6 5 4 4 5 4 3 3 3 3 3 2 2 1 1
3 4 3 3 2 3 4 4 2 4 5 6 5 4 3 4 4 3 2 2 3 3 4 5 6 6 6 6 6 6 6 6 6 5 6 5 4 5 5 4 4 3 3 2 3 2 2 2 1
2 4 5 4 3 2 3 3 2 1 1 2 3 2 2 2 3 3 3 3 3 3 3 4 4 5 5 5 5 5 5 6 6 5 5 5 5 5 5 4 4 3 3 3 3 3 3 3 2
Wind_Direction
303 344 61 58 66 75 229 238 234 233 210 199 119 111 115 117 143 152 133 139 135 140 143 142 140 136 133 129 126 123 120 117 115 113 111 108 106 104 101 98 94 91 88 86 84 82 80 78 76
10 35 64 70 120 188 246 239 228 229 198 162 106 97 89 89 90 113 126 140 137 138 140 140 138 135 132 131 128 125 123 119 118 116 114 111 108 105 102 99 96 92 90 87 84 82 80 77 74
3 109 101 106 167 197 225 232 216 239 230 164 95 66 101 122 125 131 144 139 133 134 138 139 137 135 133 131 128 126 125 122 120 118 115 112 110 107 103 100 97 94 91 88 86 83 79 76 73
86 79 76 140 219 226 229 234 216 202 275 86 116 81 58 41 151 138 136 133 130 131 135 139 138 137 134 132 130 127 125 125 122 120 117 114 112 108 104 100 98 96 93 90 87 83 79 75 71
79 108 140 215 233 245 244 252 244 207 192 128 116 107 61 349 113 127 133 132 132 132 135 140 139 138 135 134 131 129 126 124 122 120 118 116 114 110 106 102 100 98 95 92 88 84 78 73 68
115 116 162 213 230 249 248 247 245 199 179 142 114 113 109 96 120 132 134 132 132 133 133 136 138 137 136 135 134 130 128 126 123 121 119 118 114 111 108 105 101 99 96 93 88 83 77 73 68
154 155 191 203 218 239 241 229 190 196 177 179 139 114 132 139 135 132 130 128 127 129 129 130 132 131 132 132 132 129 127 125 123 121 118 117 114 111 108 105 102 99 95 92 88 83 78 74 71
165 155 197 208 204 227 233 192 197 181 183 148 127 138 162 164 140 126 122 123 124 123 125 124 126 128 127 127 128 127 126 124 122 119 117 116 113 110 107 104 103 99 94 91 88 82 78 75 72
143 166 206 205 196 225 216 186 277 147 116 78 80 155 157 142 134 127 126 126 131 131 130 126 125 125 125 126 127 126 125 123 120 117 115 111 106 105 104 103 101 97 93 91 88 81 77 75 70
169 200 212 211 202 215 213 184 186 107 93 79 68 85 126 137 140 141 146 147 147 146 142 136 132 130 129 129 124 122 122 121 120 118 115 110 108 106 105 104 101 97 92 87 81 77 74 69 64
186 205 218 249 248 243 242 219 176 139 163 167 151 144 143 145 147 149 154 156 155 151 147 144 139 136 132 129 128 123 123 121 121 122 120 116 107 103 100 95 90 87 82 73 70 67 66 67 68
199 226 216 245 263 262 243 207 95 164 189 170 158 152 150 155 158 159 159 157 153 153 151 149 143 137 134 133 132 131 129 126 125 126 126 120 109 102 99 94 90 83 79 74 69 68 65 66 68
224 230 233 248 264 245 225 211 161 238 169 136 140 144 154 159 162 158 154 152 152 155 155 156 150 144 140 135 136 134 133 131 130 128 129 127 120 115 107 99 93 86 83 82 78 73 67 64 65
216 233 254 253 261 268 193 243 149 223 139 129 143 155 163 163 163 155 155 156 159 159 159 156 153 148 143 139 136 135 136 134 129 129 132 130 126 123 114 102 93 87 88 91 91 80 73 64 62
195 214 267 254 226 227 151 269 216 194 145 144 157 164 167 168 161 165 166 164 164 160 157 157 155 149 145 142 139 136 137 135 130 131 133 132 130 127 120 109 97 92 92 89 86 73 68 59 51
163 180 219 242 199 205 160 227 233 182 155 164 170 168 168 176 171 172 169 163 161 156 156 158 156 151 146 142 137 136 136 134 132 132 132 131 132 130 119 109 101 100 94 86 80 69 58 43 34
174 198 206 228 198 174 173 218 237 196 161 171 179 179 175 177 178 177 173 166 163 160 158 155 154 153 147 139 134 131 131 130 133 131 131 132 132 131 122 114 107 103 90 78 71 56 66 45 21
190 191 193 201 201 169 186 216 234 199 172 181 184 184 180 184 191 182 177 170 162 159 157 153 151 151 141 132 124 117 113 118 125 128 133 133 131 131 125 116 109 105 92 76 72 65 48 48 9
179 180 193 203 200 169 197 218 231 217 185 186 187 186 189 197 193 176 170 167 157 155 156 156 154 154 149 147 148 146 148 142 123 125 134 134 133 133 126 119 110 106 106 111 100 78 60 31 14
210 195 198 207 203 179 200 232 240 220 203 191 188 192 194 190 182 176 166 162 164 165 166 163 162 160 161 160 157 147 141 135 131 123 125 133 135 136 135 126 121 115 111 101 93 85 77 35 34
218 202 195 192 163 179 152 257 250 246 212 199 195 191 191 189 186 181 173 170 168 170 173 171 168 164 160 148 135 123 102 92 104 130 133 131 138 138 135 132 125 116 118 128 121 114 107 103 23
220 212 208 196 173 214 176 215 250 224 217 208 207 196 194 191 183 179 175 175 177 177 173 171 168 164 159 152 153 154 158 161 178 167 156 135 137 135 135 132 126 118 115 125 131 108 112 123 116
208 213 214 195 180 204 202 189 255 208 214 218 211 203 195 190 180 180 181 181 179 173 169 167 165 164 162 162 163 162 160 157 144 141 142 137 123 130 137 134 127 120 118 120 116 110 108 121 148
159 101 74 87 147 213 206 186 239 212 206 203 205 201 195 189 180 175 171 167 166 163 162 162 161 162 165 166 166 167 164 156 150 154 157 154 143 128 131 134 128 127 123 127 128 119 118 131 135
155 136 156 187 203 227 184 186 237 227 201 195 196 198 192 179 168 164 160 160 163 164 166 166 165 167 168 167 171 174 171 166 168 170 170 165 163 169 170 139 136 133 132 131 124 119 128 147 147
191 171 178 185 194 221 179 207 239 264 232 181 176 175 168 163 164 167 169 168 167 170 167 167 171 170 171 172 174 172 169 171 174 175 172 175 177 177 160 147 138 137 135 131 119 116 141 129 163
172 191 179 134 142 168 211 244 293 341 63 130 141 145 157 165 163 167 167 166 166 170 174 171 169 167 172 173 169 169 170 172 172 171 167 168 163 154 146 144 140 139 140 137 131 147 162 142 174
168 158 138 151 165 196 213 219 216 209 201 178 162 165 173 159 152 151 154 159 161 165 165 164 167 169 168 170 172 172 173 171 169 164 166 167 164 150 147 150 150 146 143 142 139 149 150 154 209
160 157 144 156 190 177 192 243 228 209 201 186 185 172 165 166 163 155 140 129 130 126 135 151 158 157 161 166 164 165 169 166 163 169 172 169 162 157 161 164 161 163 161 159 164 181 176 186 227
174 168 159 172 216 204 177 250 311 266 295 158 151 143 139 140 140 129 116 106 103 112 128 139 151 156 164 163 159 160 163 160 162 170 173 165 164 163 162 159 165 173 175 181 186 197 200 201 217
Height
1509 1511 1513 1515 1519 1526 1523 1513 1505 1501 1500 1499 1499 1499 1501 1505 1510 1516 1514 1515 1519 1522 1525 1528 1531 1533 1535 1536 1538 1539 1541 1542 1543 1544 1545 1546 1546 1547 1547 1547 1548 1548 1548 1548 1548 1548 1548 1547 1547
1508 1511 1514 1514 1522 1529 1521 1508 1502 1498 1497 1498 1499 1500 1501 1505 1507 1509 1511 1516 1519 1522 1525 1528 1531 1533 1535 1537 1538 1540 1541 1543 1544 1545 1546 1547 1547 1548 1548 1548 1549 1549 1549 1549 1549 1549 1549 1549 1548
1508 1510 1513 1515 1521 1521 1513 1501 1498 1495 1496 1496 1499 1501 1503 1505 1507 1509 1511 1515 1519 1522 1525 1528 1531 1533 1535 1537 1539 1540 1542 1543 1544 1546 1547 1548 1548 1549 1549 1550 1550 1550 1550 1550 1550 1550 1550 1549 1549
1507 1510 1512 1516 1515 1509 1502 1496 1495 1494 1495 1496 1497 1502 1504 1507 1508 1509 1512 1516 1519 1522 1526 1528 1531 1533 1535 1537 1539 1541 1542 1544 1545 1546 1547 1548 1549 1550 1550 1551 1551 1551 1551 1551 1551 1551 1551 1550 1550
1506 1508 1512 1515 1511 1503 1497 1494 1494 1494 1494 1495 1496 1501 1505 1507 1509 1511 1513 1516 1519 1522 1526 1529 1531 1534 1536 1538 1539 1541 1543 1544 1546 1547 1548 1549 1550 1550 1551 1551 1552 1552 1552 1552 1552 1552 1552 1551 1551
1504 1505 1513 1514 1506 1498 1494 1493 1494 1493 1494 1495 1496 1501 1505 1508 1509 1511 1514 1517 1520 1522 1526 1529 1532 1534 1536 1538 1540 1541 1543 1545 1546 1547 1548 1549 1550 1551 1552 1552 1553 1553 1553 1553 1553 1553 1552 1552 1551
1502 1504 1507 1506 1502 1498 1493 1492 1493 1493 1493 1494 1495 1500 1505 1508 1509 1512 1514 1517 1520 1523 1526 1529 1532 1534 1536 1538 1540 1542 1543 1545 1546 1548 1549 1550 1551 1552 1552 1553 1553 1553 1553 1554 1553 1553 1553 1552 1552
1499 1502 1502 1501 1499 1495 1489 1490 1491 1491 1492 1494 1495 1497 1502 1506 1509 1512 1515 1518 1521 1524 1526 1529 1531 1533 1536 1538 1540 1542 1544 1545 1547 1548 1549 1550 1551 1552 1553 1553 1554 1554 1554 1554 1554 1554 1553 1553 1552
1497 1502 1500 1496 1494 1491 1487 1488 1489 1490 1491 1493 1494 1495 1498 1503 1507 1511 1514 1518 1521 1524 1526 1529 1531 1533 1535 1538 1540 1542 1544 1545 1547 1548 1550 1551 1552 1552 1553 1554 1554 1554 1554 1554 1554 1554 1553 1553 1552
1494 1497 1493 1488 1487 1486 1486 1487 1488 1489 1490 1492 1493 1495 1499 1502 1505 1508 1512 1515 1519 1522 1525 1528 1530 1533 1535 1537 1540 1542 1544 1545 1547 1548 1550 1551 1552 1553 1553 1554 1554 1554 1554 1554 1554 1554 1553 1553 1552
1489 1489 1487 1485 1485 1485 1485 1486 1487 1487 1490 1490 1491 1494 1498 1501 1504 1507 1511 1514 1517 1521 1524 1528 1530 1533 1535 1537 1539 1541 1543 1545 1547 1548 1550 1551 1552 1553 1553 1554 1554 1554 1554 1554 1554 1554 1553 1553 1552
1486 1485 1485 1484 1484 1484 1485 1485 1486 1486 1487 1488 1490 1492 1495 1499 1503 1506 1509 1513 1517 1520 1524 1527 1530 1532 1535 1537 1539 1541 1543 1545 1546 1548 1549 1550 1551 1552 1553 1554 1554 1554 1554 1554 1554 1554 1553 1553 1552
1483 1482 1483 1483 1483 1483 1484 1485 1486 1486 1487 1488 1490 1493 1495 1498 1502 1506 1509 1513 1516 1519 1523 1526 1529 1531 1534 1536 1539 1541 1543 1544 1546 1548 1549 1550 1551 1552 1553 1553 1554 1554 1554 1554 1553 1553 1553 1552 1552
1481 1481 1482 1482 1482 1482 1483 1484 1485 1486 1487 1488 1490 1493 1496 1498 1501 1505 1508 1511 1514 1518 1521 1525 1528 1530 1533 1535 1538 1540 1542 1544 1546 1547 1548 1550 1551 1552 1552 1553 1553 1553 1553 1553 1553 1552 1552 1551 1551
1480 1482 1482 1481 1481 1482 1483 1486 1484 1485 1486 1487 1490 1493 1495 1498 1501 1503 1506 1509 1513 1516 1520 1523 1526 1529 1532 1535 1537 1539 1542 1543 1545 1547 1548 1549 1550 1551 1551 1552 1552 1552 1552 1552 1552 1551 1551 1550 1550
1479 1483 1485 1479 1479 1480 1486 1488 1483 1483 1485 1486 1489 1492 1494 1497 1500 1503 1506 1509 1512 1515 1518 1521 1525 1528 1531 1533 1536 1538 1541 1543 1544 1546 1547 1548 1549 1550 1551 1551 1551 1551 1551 1551 1551 1550 1550 1549 1548
1481 1483 1483 1480 1477 1479 1483 1485 1482 1482 1483 1485 1487 1490 1492 1495 1498 1502 1504 1507 1510 1513 1516 1519 1523 1526 1529 1532 1535 1537 1539 1541 1543 1545 1546 1547 1548 1549 1550 1550 1550 1550 1550 1550 1550 1549 1548 1547 1547
1479 1480 1480 1480 1476 1478 1482 1483 1480 1480 1481 1483 1486 1488 1490 1493 1496 1499 1502 1506 1509 1512 1515 1518 1521 1524 1527 1530 1533 1535 1538 1540 1542 1543 1545 1546 1547 1548 1549 1549 1549 1549 1549 1549 1548 1548 1547 1546 1545
1473 1476 1478 1477 1474 1478 1481 1481 1480 1479 1480 1482 1484 1486 1488 1490 1494 1498 1500 1504 1507 1509 1512 1515 1518 1521 1524 1527 1530 1532 1535 1538 1540 1542 1543 1545 1546 1547 1547 1547 1547 1547 1547 1547 1547 1546 1545 1544 1543
1472 1475 1477 1476 1474 1477 1481 1480 1478 1478 1478 1479 1481 1483 1485 1488 1491 1494 1497 1500 1503 1506 1509 1513 1516 1519 1522 1525 1528 1531 1534 1536 1538 1540 1541 1543 1544 1545 1546 1546 1546 1546 1546 1545 1545 1544 1543 1543 1542
1472 1474 1475 1476 1476 1477 1481 1483 1479 1477 1477 1477 1479 1480 1482 1484 1487 1490 1494 1497 1500 1503 1506 1509 1513 1516 1520 1523 1526 1529 1532 1534 1536 1537 1539 1541 1542 1543 1544 1544 1544 1544 1544 1543 1543 1543 1542 1541 1541
1471 1470 1472 1474 1479 1484 1482 1490 1481 1477 1477 1476 1477 1478 1479 1482 1484 1487 1490 1493 1496 1500 1503 1507 1511 1514 1517 1520 1523 1525 1527 1529 1532 1534 1537 1539 1540 1541 1542 1542 1542 1542 1542 1542 1541 1541 1540 1540 1539
1470 1470 1471 1473 1478 1484 1483 1488 1482 1476 1476 1474 1474 1475 1477 1479 1481 1484 1487 1490 1493 1497 1500 1504 1508 1511 1514 1517 1520 1523 1526 1528 1531 1533 1535 1536 1537 1539 1539 1540 1540 1540 1540 1540 1539 1539 1538 1538 1537
1469 1472 1474 1476 1480 1485 1481 1485 1480 1473 1468 1469 1471 1473 1474 1476 1478 1481 1484 1488 1491 1494 1498 1501 1505 1508 1511 1515 1517 1520 1523 1525 1528 1529 1531 1533 1535 1536 1537 1538 1538 1538 1538 1538 1537 1537 1536 1536 1535
1471 1476 1480 1481 1483 1480 1476 1478 1474 1466 1464 1465 1467 1469 1471 1473 1475 1478 1481 1484 1487 1491 1494 1498 1501 1504 1508 1511 1514 1517 1520 1523 1525 1527 1529 1530 1531 1533 1534 1534 1535 1535 1535 1536 1535 1535 1534 1534 1533
1469 1473 1478 1478 1479 1479 1474 1475 1470 1464 1462 1463 1465 1467 1469 1471 1473 1476 1478 1481 1484 1487 1490 1494 1498 1501 1505 1508 1511 1514 1517 1520 1522 1524 1526 1527 1529 1530 1531 1532 1532 1533 1533 1533 1533 1532 1532 1531 1530
1468 1471 1472 1477 1479 1479 1475 1472 1468 1463 1463 1463 1464 1466 1467 1469 1471 1474 1476 1479 1481 1484 1487 1490 1494 1498 1501 1505 1508 1511 1514 1517 1519 1521 1523 1525 1526 1527 1528 1529 1529 1530 1530 1530 1530 1529 1529 1528 1527
1465 1467 1473 1477 1476 1475 1473 1472 1470 1466 1464 1464 1464 1465 1466 1468 1470 1472 1474 1476 1479 1482 1485 1488 1491 1494 1498 1501 1505 1508 1511 1513 1516 1518 1520 1521 1523 1524 1524 1525 1526 1526 1527 1527 1527 1526 1526 1525 1524
1467 1468 1470 1475 1475 1474 1475 1473 1464 1464 1462 1463 1463 1464 1465 1467 1468 1470 1473 1475 1477 1480 1482 1485 1488 1491 1495 1498 1501 1504 1507 1510 1512 1514 1516 1518 1519 1520 1521 1522 1522 1523 1523 1523 1523 1523 1522 1522 1521
1465 1466 1470 1474 1477 1476 1476 1475 1464 1464 1463 1462 1464 1465 1466 1467 1468 1470 1471 1473 1476 1478 1480 1483 1485 1488 1491 1494 1498 1501 1503 1506 1508 1510 1512 1514 1515 1517 1518 1518 1519 1519 1520 1520 1520 1519 1519 1518 1517